Regional Weather Roundup
Issued by NWS

Home | Current Version | Previous Version | Graphics & Text | Print | Product List | Glossary On
Versions: 1 2 3 4 5 6 7 8 9 10 11 12 13 14 15 16 17 18 19 20 21 22 23 24 25 26 27 28 29 30 31 32 33 34 35 36 37 38 39 40 41 42 43 44 45 46 47 48 49 50
371
ASUS43 KLMK 290502
RWRKY
KENTUCKY REGIONAL WEATHER ROUNDUP
NATIONAL WEATHER SERVICE LOUISVILLE KY
100 AM EDT SAT APR 29 2017

NOTE "FAIR" INDICATES FEW OR NO CLOUDS BELOW 12,000 FEET
WITH NO SIGNIFICANT WEATHER AND/OR OBSTRUCTIONS TO VISIBILITY.

KYZ001>023-026-027-061>063-070>075-290600-
WESTERN AND SOUTH CENTRAL KENTUCKY

CITY           SKY/WX    TMP DP  RH WIND       PRES   REMARKS
PADUCAH        CLOUDY    78  68  71 S8        29.78F
HENDERSON      TSTM      70  66  87 NW17G29   29.87R
OWENSBORO      CLOUDY    74  69  85 SW7       29.85R
HOPKINSVILLE   CLOUDY    78  68  72 S13       29.85R
BOWLING GREEN  CLOUDY    78  68  71 S17G24    29.88R
GLASGOW        NOT AVBL
$$

KYZ024-025-028>034-038-045-046-053-290600-
NORTH CENTRAL KENTUCKY

CITY           SKY/WX    TMP DP  RH WIND       PRES   REMARKS
LOUISVILLE/SDF CLOUDY    70  65  84 N9        29.87F THUNDER
LOUISVILLE/LOU CLOUDY    70  65  84 NW9       29.89R THUNDER
FORT KNOX      CLOUDY    75  66  74 S14       29.88R
$$

KYZ035>037-039>044-047>052-055>060-089>105-290600-
NORTHEAST KENTUCKY

CITY           SKY/WX    TMP DP  RH WIND       PRES   REMARKS
LEXINGTON      CLOUDY    74  63  68 S10       29.93R
COVINGTON      LGT RAIN  64  63  96 VRB6      29.92R
FRANKFORT      CLOUDY    75  63  66 S12       29.88R
$$

KYZ054-064>069-076>088-106>120-290600-
SOUTHEAST KENTUCKY

CITY           SKY/WX    TMP DP  RH WIND       PRES   REMARKS
JACKSON        MOCLDY    74  63  68 VRB5      29.99S
LONDON         PTCLDY    73  62  68 S5        29.99S
SOMERSET       CLOUDY    73  63  68 S7        29.97F
MIDDLESBORO    PTCLDY    74  64  72 CALM      30.03F
MONTICELLO     CLEAR     75  65  70 SE6       29.96F
$$





USA.gov is the U.S. government's official web portal to all federal, state and local government web resources and services.